| time (UTC) | temp F | wind direction | speed knots | gust knots | rain 1hr in | rain 24hr in | rain mn in | humidity % | barometer mb |
| 20260831210504 | 91 | 57 | 0.9 | 2.6 | 0.00 | 0.00 | 0.00 | 56 | 1019.8 |
| 20260831210003 | 91 | 17 | 0.9 | 2.6 | 0.00 | 0.00 | 0.00 | 58 | 1019.8 |
| 20260831205503 | 91 | 138 | 0.9 | 1.7 | 0.00 | 0.00 | 0.00 | 56 | 1019.8 |
| 20260831205003 | 91 | 160 | 0.9 | 1.7 | 0.00 | 0.00 | 0.00 | 57 | 1019.8 |
| 20260831204503 | 91 | 154 | 0.9 | 2.6 | 0.00 | 0.00 | 0.00 | 56 | 1019.8 |
| 20260831204003 | 91 | 165 | 0.9 | 2.6 | 0.00 | 0.00 | 0.00 | 56 | 1019.8 |
| 20260831203503 | 91 | 169 | 0.9 | 2.6 | 0.00 | 0.00 | 0.00 | 58 | 1019.9 |
| 20260831203003 | 91 | 156 | 0.9 | 2.6 | 0.00 | 0.00 | 0.00 | 55 | 1019.9 |
| 20260831202503 | 91 | 142 | 0.9 | 3.5 | 0.00 | 0.00 | 0.00 | 55 | 1020.1 |
| 20260831202003 | 91 | 142 | 0.9 | 3.5 | 0.00 | 0.00 | 0.00 | 56 | 1020.1 |
| 20260831201503 | 91 | 137 | 0.9 | 2.6 | 0.00 | 0.00 | 0.00 | 58 | 1020.1 |
| 20260831201003 | 92 | 172 | 0.9 | 2.6 | 0.00 | 0.00 | 0.00 | 57 | 1020.3 |
| 20260831200503 | 92 | 138 | 1.7 | 4.3 | 0.00 | 0.00 | 0.00 | 55 | 1020.3 |
| 20260831200003 | 92 | 60 | 0.9 | 4.3 | 0.00 | 0.00 | 0.00 | 56 | 1020.3 |
| 20260831195503 | 92 | 21 | 0.9 | 3.5 | 0.00 | 0.00 | 0.00 | 58 | 1020.3 |
| 20260831195003 | 92 | 33 | 0.9 | 3.5 | 0.00 | 0.00 | 0.00 | 57 | 1020.3 |
| 20260831194503 | 92 | 49 | 0.9 | 3.5 | 0.00 | 0.00 | 0.00 | 57 | 1020.3 |
| 20260831194003 | 92 | 108 | 0.9 | 2.6 | 0.00 | 0.00 | 0.00 | 55 | 1020.5 |
| 20260831193503 | 92 | 144 | 0.9 | 2.6 | 0.00 | 0.00 | 0.00 | 54 | 1020.6 |
| 20260831193217 | 92 | 36 | 0.9 | 3.5 | 0.00 | 0.00 | 0.00 | 55 | 1020.6 |
| 20260831192503 | 92 | 23 | 1.7 | 3.5 | 0.00 | 0.00 | 0.00 | 56 | 1020.6 |
| 20260831192003 | 92 | 103 | 1.7 | 3.5 | 0.00 | 0.00 | 0.00 | 58 | 1020.6 |
| 20260831191503 | 92 | 144 | 1.7 | 3.5 | 0.00 | 0.00 | 0.00 | 55 | 1020.6 |
| 20260831191214 | 92 | 57 | 0.9 | 3.5 | 0.00 | 0.00 | 0.00 | 57 | 1020.6 |
| 20260831190717 | 92 | 12 | 1.7 | 4.3 | 0.00 | 0.00 | 0.00 | 57 | 1020.6 |
| 20260831190003 | 92 | 8 | 1.7 | 4.3 | 0.00 | 0.00 | 0.00 | 55 | 1020.7 |
| 20260831185503 | 91 | 116 | 0.9 | 3.5 | 0.00 | 0.00 | 0.00 | 58 | 1020.8 |
| 20260831185003 | 91 | 37 | 1.7 | 3.5 | 0.00 | 0.00 | 0.00 | 59 | 1020.7 |
| 20260831184503 | 91 | 40 | 1.7 | 4.3 | 0.00 | 0.00 | 0.00 | 58 | 1020.8 |
| 20260831184003 | 92 | 69 | 1.7 | 4.3 | 0.00 | 0.00 | 0.00 | 58 | 1021.0 |
| 20260831183503 | 91 | 130 | 0.9 | 4.3 | 0.00 | 0.00 | 0.00 | 60 | 1021.1 |
| 20260831183213 | 91 | 148 | 0.9 | 2.6 | 0.00 | 0.00 | 0.00 | 59 | 1021.1 |
| 20260831182716 | 91 | 58 | 0.9 | 4.3 | 0.00 | 0.00 | 0.00 | 64 | 1021.1 |
| 20260831182003 | 91 | 41 | 0.9 | 2.6 | 0.00 | 0.00 | 0.00 | 61 | 1021.1 |
| 20260831181503 | 91 | 10 | 1.7 | 4.3 | 0.00 | 0.00 | 0.00 | 57 | 1021.2 |
| 20260831181003 | 92 | 6 | 1.7 | 4.3 | 0.00 | 0.00 | 0.00 | 58 | 1021.2 |
| 20260831180503 | 91 | 18 | 0.9 | 3.5 | 0.00 | 0.00 | 0.00 | 63 | 1021.3 |
| 20260831180004 | 91 | 8 | 1.7 | 3.5 | 0.00 | 0.00 | 0.00 | 64 | 1021.3 |
| 20260831175713 | 91 | 28 | 1.7 | 3.5 | 0.00 | 0.00 | 0.00 | 61 | 1021.4 |
| 20260831175004 | 91 | 36 | 0.9 | 3.5 | 0.00 | 0.00 | 0.00 | 61 | 1021.5 |
| 20260831174503 | 91 | 16 | 1.7 | 3.5 | 0.00 | 0.00 | 0.00 | 68 | 1021.5 |
| 20260831174003 | 90 | 38 | 1.7 | 3.5 | 0.00 | 0.00 | 0.00 | 64 | 1021.5 |
| 20260831173503 | 90 | 73 | 1.7 | 3.5 | 0.00 | 0.00 | 0.00 | 64 | 1021.5 |
| 20260831173003 | 90 | 136 | 0.9 | 2.6 | 0.00 | 0.00 | 0.00 | 66 | 1021.5 |
| 20260831172503 | 90 | 5 | 1.7 | 3.5 | 0.00 | 0.00 | 0.00 | 63 | 1021.6 |
| 20260831172214 | 90 | 4 | 1.7 | 3.5 | 0.00 | 0.00 | 0.00 | 64 | 1021.6 |
| 20260831171503 | 90 | 53 | 0.9 | 4.3 | 0.00 | 0.00 | 0.00 | 66 | 1021.6 |
| 20260831171003 | 90 | 90 | 0.9 | 3.5 | 0.00 | 0.00 | 0.00 | 65 | 1021.7 |
| 20260831170503 | 90 | 92 | 0.9 | 3.5 | 0.00 | 0.00 | 0.00 | 66 | 1021.8 |
| 20260831170005 | 89 | 50 | 0.9 | 4.3 | 0.00 | 0.00 | 0.00 | 66 | 1021.7 |
| 20260831165503 | 89 | 53 | 0.9 | 4.3 | 0.00 | 0.00 | 0.00 | 65 | 1021.8 |
| 20260831165003 | 89 | 31 | 1.7 | 3.5 | 0.00 | 0.00 | 0.00 | 65 | 1021.9 |
| 20260831164503 | 89 | 26 | 0.9 | 3.5 | 0.00 | 0.00 | 0.00 | 65 | 1022.0 |
| 20260831164003 | 88 | 95 | 0.9 | 2.6 | 0.00 | 0.00 | 0.00 | 68 | 1022.0 |
| 20260831163503 | 88 | 129 | 0.9 | 2.6 | 0.00 | 0.00 | 0.00 | 70 | 1022.0 |
| 20260831163003 | 88 | 55 | 1.7 | 3.5 | 0.00 | 0.00 | 0.00 | 69 | 1022.0 |
| 20260831162503 | 88 | 41 | 1.7 | 3.5 | 0.00 | 0.00 | 0.00 | 66 | 1022.1 |
| 20260831162003 | 88 | 47 | 0.9 | 3.5 | 0.00 | 0.00 | 0.00 | 63 | 1022.1 |
| 20260831161503 | 88 | 53 | 0.9 | 2.6 | 0.00 | 0.00 | 0.00 | 70 | 1022.1 |
| 20260831161003 | 87 | 121 | 0.9 | 3.5 | 0.00 | 0.00 | 0.00 | 68 | 1022.1 |
| 20260831160503 | 87 | 53 | 0.9 | 3.5 | 0.00 | 0.00 | 0.00 | 70 | 1022.1 |
| 20260831160217 | 87 | 15 | 1.7 | 3.5 | 0.00 | 0.00 | 0.00 | 68 | 1022.1 |
| 20260831155715 | 87 | 3 | 1.7 | 3.5 | 0.00 | 0.00 | 0.00 | 71 | 1022.1 |
| 20260831155003 | 87 | 61 | 0.9 | 3.5 | 0.00 | 0.00 | 0.00 | 73 | 1022.1 |
| 20260831154503 | 86 | 141 | 0.9 | 2.6 | 0.00 | 0.00 | 0.00 | 73 | 1022.1 |
| 20260831154003 | 86 | 95 | 0.9 | 2.6 | 0.00 | 0.00 | 0.00 | 74 | 1022.2 |
| 20260831153503 | 86 | 7 | 0.9 | 4.3 | 0.00 | 0.00 | 0.00 | 73 | 1022.2 |
| 20260831153003 | 85 | 9 | 0.9 | 5.2 | 0.00 | 0.00 | 0.00 | 77 | 1022.2 |
| 20260831152712 | 85 | 24 | 0.9 | 5.2 | 0.00 | 0.00 | 0.00 | 75 | 1022.2 |
| 20260831152003 | 84 | 35 | 0.9 | 4.3 | 0.00 | 0.00 | 0.00 | 78 | 1022.3 |
| 20260831151503 | 84 | 8 | 1.7 | 4.3 | 0.00 | 0.00 | 0.00 | 77 | 1022.3 |
| 20260831151003 | 84 | 9 | 1.7 | 4.3 | 0.00 | 0.00 | 0.00 | 78 | 1022.3 |
| 20260831150503 | 83 | 98 | 0.9 | 3.5 | 0.00 | 0.00 | 0.00 | 77 | 1022.4 |
| 20260831150212 | 83 | 70 | 0.9 | 3.5 | 0.00 | 0.00 | 0.00 | 78 | 1022.4 |
| 20260831145715 | 83 | 12 | 0.9 | 3.5 | 0.00 | 0.00 | 0.00 | 81 | 1022.4 |
| 20260831145003 | 82 | 55 | 0.9 | 2.6 | 0.00 | 0.00 | 0.00 | 81 | 1022.4 |
| 20260831144503 | 82 | 112 | 0.9 | 2.6 | 0.00 | 0.00 | 0.00 | 82 | 1022.4 |
| 20260831144003 | 81 | 77 | 0.9 | 3.5 | 0.00 | 0.00 | 0.00 | 82 | 1022.4 |
| 20260831143503 | 81 | 43 | 0.9 | 4.3 | 0.00 | 0.00 | 0.00 | 83 | 1022.4 |
| 20260831143004 | 80 | 27 | 0.9 | 4.3 | 0.00 | 0.00 | 0.00 | 82 | 1022.3 |
| 20260831142503 | 80 | 41 | 0.9 | 3.5 | 0.00 | 0.00 | 0.00 | 83 | 1022.3 |
| 20260831142003 | 80 | 95 | 0.9 | 4.3 | 0.00 | 0.00 | 0.00 | 84 | 1022.3 |
| 20260831141503 | 79 | 27 | 1.7 | 4.3 | 0.00 | 0.00 | 0.00 | 85 | 1022.3 |
| 20260831141217 | 79 | 9 | 1.7 | 3.5 | 0.00 | 0.00 | 0.00 | 86 | 1022.2 |
| 20260831140503 | 78 | 4 | 0.9 | 3.5 | 0.00 | 0.00 | 0.00 | 86 | 1022.3 |
| 20260831140003 | 78 | 15 | 0.9 | 3.5 | 0.00 | 0.00 | 0.00 | 87 | 1022.3 |
| 20260831135503 | 77 | 42 | 0.9 | 3.5 | 0.00 | 0.00 | 0.00 | 88 | 1022.3 |
| 20260831135003 | 77 | 112 | 0.9 | 3.5 | 0.00 | 0.00 | 0.00 | 90 | 1022.2 |
| 20260831134717 | 76 | 73 | 0.9 | 3.5 | 0.00 | 0.00 | 0.00 | 90 | 1022.2 |
| 20260831134003 | 76 | 31 | 0.9 | 3.5 | 0.00 | 0.00 | 0.00 | 92 | 1022.2 |
| 20260831133503 | 75 | 63 | 0.9 | 1.7 | 0.00 | 0.00 | 0.00 | 93 | 1022.1 |
| 20260831133003 | 75 | 34 | 0.9 | 3.5 | 0.00 | 0.00 | 0.00 | 94 | 1022.1 |
| 20260831132503 | 75 | 150 | 0.9 | 3.5 | 0.00 | 0.00 | 0.00 | 94 | 1021.9 |
| 20260831132003 | 74 | 167 | 0.9 | 1.7 | 0.00 | 0.00 | 0.00 | 94 | 1022.0 |
| 20260831131503 | 74 | 0 | 0.0 | 1.7 | 0.00 | 0.00 | 0.00 | 94 | 1022.0 |
| 20260831131003 | 74 | 0 | 0.0 | 0.9 | 0.00 | 0.00 | 0.00 | 94 | 1022.0 |
| 20260831130503 | 74 | 0 | 0.0 | 0.9 | 0.00 | 0.00 | 0.00 | 94 | 1022.0 |
| 20260831130214 | 73 | 0 | 0.0 | 0.9 | 0.00 | 0.00 | 0.00 | 94 | 1022.0 |
| 20260831125503 | 73 | 0 | 0.0 | 1.7 | 0.00 | 0.00 | 0.00 | 94 | 1022.2 |
| 20260831125003 | 72 | 0 | 0.0 | 1.7 | 0.00 | 0.00 | 0.00 | 94 | 1022.1 |
| 20260831124503 | 72 | 0 | 0.0 | 0.9 | 0.00 | 0.00 | 0.00 | 94 | 1022.1 |
| 20260831124216 | 71 | 0 | 0.0 | 0.9 | 0.00 | 0.00 | 0.00 | 94 | 1022.0 |
| 20260831123503 | 71 | 0 | 0.0 | 0.9 | 0.00 | 0.00 | 0.00 | 94 | 1022.1 |
| 20260831123003 | 70 | 0 | 0.0 | 0.9 | 0.00 | 0.00 | 0.00 | 93 | 1022.0 |
| 20260831122503 | 70 | 0 | 0.0 | 0.9 | 0.00 | 0.00 | 0.00 | 93 | 1022.0 |
| 20260831122003 | 70 | 0 | 0.0 | 1.7 | 0.00 | 0.00 | 0.00 | 93 | 1022.1 |
| 20260831121715 | 70 | 0 | 0.0 | 1.7 | 0.00 | 0.00 | 0.00 | 93 | 1022.0 |
| 20260831121003 | 69 | 0 | 0.0 | 0.9 | 0.00 | 0.00 | 0.00 | 93 | 1022.0 |
| 20260831120503 | 69 | 0 | 0.0 | 0.9 | 0.00 | 0.00 | 0.00 | 93 | 1022.0 |
| 20260831120003 | 69 | 0 | 0.0 | 0.9 | 0.00 | 0.00 | 0.00 | 93 | 1022.1 |
| 20260831115717 | 68 | 0 | 0.0 | 0.9 | 0.00 | 0.00 | 0.00 | 93 | 1022.1 |
| 20260831115003 | 68 | 0 | 0.0 | 0.9 | 0.00 | 0.00 | 0.00 | 92 | 1022.1 |
| 20260831114503 | 68 | 332 | 0.9 | 1.7 | 0.00 | 0.00 | 0.00 | 92 | 1022.1 |
| 20260831114003 | 68 | 326 | 0.9 | 1.7 | 0.00 | 0.00 | 0.00 | 92 | 1022.1 |
| 20260831113503 | 68 | 0 | 0.0 | 0.9 | 0.00 | 0.00 | 0.00 | 92 | 1022.0 |
| 20260831113003 | 68 | 0 | 0.0 | 0.9 | 0.00 | 0.00 | 0.00 | 92 | 1022.0 |
| 20260831112503 | 68 | 0 | 0.0 | 0.9 | 0.00 | 0.00 | 0.00 | 92 | 1022.0 |
| 20260831112003 | 68 | 0 | 0.0 | 0.9 | 0.00 | 0.00 | 0.00 | 92 | 1021.9 |
| 20260831111503 | 68 | 0 | 0.0 | 0.9 | 0.00 | 0.00 | 0.00 | 92 | 1021.9 |
| 20260831111003 | 68 | 0 | 0.0 | 0.9 | 0.00 | 0.00 | 0.00 | 92 | 1021.9 |
| 20260831110503 | 68 | 0 | 0.0 | 0.9 | 0.00 | 0.00 | 0.00 | 92 | 1021.9 |
| 20260831110003 | 68 | 0 | 0.0 | 0.9 | 0.00 | 0.00 | 0.00 | 92 | 1021.9 |
| 20260831105713 | 68 | 0 | 0.0 | 0.9 | 0.00 | 0.00 | 0.00 | 92 | 1021.9 |
| 20260831105005 | 68 | 0 | 0.0 | 0.9 | 0.00 | 0.00 | 0.00 | 92 | 1021.9 |
| 20260831104503 | 68 | 0 | 0.0 | 1.7 | 0.00 | 0.00 | 0.00 | 92 | 1021.9 |
| 20260831104003 | 68 | 0 | 0.0 | 1.7 | 0.00 | 0.00 | 0.00 | 92 | 1021.8 |
| 20260831103503 | 68 | 0 | 0.0 | 0.9 | 0.00 | 0.00 | 0.00 | 92 | 1021.7 |
| 20260831103213 | 68 | 0 | 0.0 | 0.9 | 0.00 | 0.00 | 0.00 | 92 | 1021.7 |
| 20260831102503 | 68 | 0 | 0.0 | 0.9 | 0.00 | 0.00 | 0.00 | 92 | 1021.6 |
| 20260831102008 | 68 | 0 | 0.0 | 0.9 | 0.00 | 0.00 | 0.00 | 92 | 1021.6 |
| 20260831101508 | 69 | 0 | 0.0 | 0.9 | 0.00 | 0.00 | 0.00 | 92 | 1021.6 |
| 20260831101008 | 69 | 0 | 0.0 | 0.9 | 0.00 | 0.00 | 0.00 | 92 | 1021.6 |
| 20260831100508 | 69 | 0 | 0.0 | 0.9 | 0.00 | 0.00 | 0.00 | 92 | 1021.6 |
| 20260831100004 | 69 | 0 | 0.0 | 0.9 | 0.00 | 0.00 | 0.00 | 92 | 1021.6 |
| 20260831095508 | 69 | 0 | 0.0 | 0.9 | 0.00 | 0.00 | 0.00 | 92 | 1021.6 |
| 20260831095003 | 69 | 0 | 0.0 | 0.9 | 0.00 | 0.00 | 0.00 | 92 | 1021.5 |
| 20260831094503 | 69 | 0 | 0.0 | 0.9 | 0.00 | 0.00 | 0.00 | 92 | 1021.5 |
| 20260831094003 | 69 | 0 | 0.0 | 0.9 | 0.00 | 0.00 | 0.00 | 92 | 1021.6 |
| 20260831093503 | 69 | 0 | 0.0 | 0.9 | 0.00 | 0.00 | 0.00 | 92 | 1021.5 |
| 20260831093003 | 70 | 0 | 0.0 | 0.9 | 0.00 | 0.00 | 0.00 | 92 | 1021.4 |
| 20260831092503 | 70 | 0 | 0.0 | 0.9 | 0.00 | 0.00 | 0.00 | 92 | 1021.4 |
| 20260831092003 | 69 | 0 | 0.0 | 0.9 | 0.00 | 0.00 | 0.00 | 92 | 1021.3 |
| 20260831091505 | 69 | 0 | 0.0 | 0.9 | 0.00 | 0.00 | 0.00 | 92 | 1021.3 |
| 20260831091003 | 69 | 0 | 0.0 | 0.9 | 0.00 | 0.00 | 0.00 | 92 | 1021.2 |
| 20260831090713 | 69 | 0 | 0.0 | 0.9 | 0.00 | 0.00 | 0.00 | 92 | 1021.2 |
| 20260831090003 | 69 | 0 | 0.0 | 0.9 | 0.00 | 0.00 | 0.00 | 92 | 1021.3 |
| 20260831085503 | 69 | 0 | 0.0 | 0.9 | 0.00 | 0.00 | 0.00 | 92 | 1021.3 |
| 20260831085003 | 69 | 0 | 0.0 | 0.9 | 0.00 | 0.00 | 0.00 | 91 | 1021.3 |
| 20260831084503 | 69 | 0 | 0.0 | 0.9 | 0.00 | 0.00 | 0.00 | 91 | 1021.4 |
| 20260831084003 | 69 | 0 | 0.0 | 0.0 | 0.00 | 0.00 | 0.00 | 91 | 1021.3 |
| 20260831083503 | 69 | 0 | 0.0 | 0.9 | 0.00 | 0.00 | 0.00 | 91 | 1021.3 |
| 20260831083003 | 69 | 0 | 0.0 | 0.9 | 0.00 | 0.00 | 0.00 | 91 | 1021.3 |
| 20260831082503 | 70 | 0 | 0.0 | 0.0 | 0.00 | 0.00 | 0.00 | 91 | 1021.3 |
| 20260831082003 | 70 | 0 | 0.0 | 0.9 | 0.00 | 0.00 | 0.00 | 91 | 1021.2 |
| 20260831081503 | 70 | 0 | 0.0 | 0.9 | 0.00 | 0.00 | 0.00 | 91 | 1021.2 |
| 20260831081216 | 70 | 0 | 0.0 | 0.9 | 0.00 | 0.00 | 0.00 | 91 | 1021.3 |
| 20260831080503 | 70 | 0 | 0.0 | 1.7 | 0.00 | 0.00 | 0.00 | 91 | 1021.2 |
| 20260831080003 | 70 | 0 | 0.0 | 0.9 | 0.00 | 0.00 | 0.00 | 92 | 1021.2 |
| 20260831075715 | 70 | 0 | 0.0 | 0.9 | 0.00 | 0.00 | 0.00 | 92 | 1021.1 |
| 20260831075003 | 70 | 0 | 0.0 | 0.9 | 0.00 | 0.00 | 0.00 | 92 | 1021.2 |
| 20260831074503 | 70 | 0 | 0.0 | 0.9 | 0.00 | 0.00 | 0.00 | 91 | 1021.2 |
| 20260831074003 | 70 | 0 | 0.0 | 0.9 | 0.00 | 0.00 | 0.00 | 91 | 1021.3 |
| 20260831073717 | 70 | 0 | 0.0 | 0.9 | 0.00 | 0.00 | 0.00 | 91 | 1021.2 |
| 20260831073003 | 70 | 0 | 0.0 | 0.9 | 0.00 | 0.00 | 0.00 | 91 | 1021.3 |
| 20260831072503 | 70 | 0 | 0.0 | 0.9 | 0.00 | 0.00 | 0.00 | 91 | 1021.3 |
| 20260831072003 | 70 | 0 | 0.0 | 0.9 | 0.00 | 0.00 | 0.00 | 91 | 1021.3 |
| 20260831071503 | 70 | 0 | 0.0 | 0.9 | 0.00 | 0.00 | 0.00 | 91 | 1021.4 |
| 20260831071003 | 70 | 0 | 0.0 | 0.9 | 0.00 | 0.00 | 0.00 | 91 | 1021.4 |
| 20260831070503 | 70 | 0 | 0.0 | 0.9 | 0.00 | 0.00 | 0.00 | 91 | 1021.4 |
| 20260831070003 | 70 | 0 | 0.0 | 0.9 | 0.00 | 0.00 | 0.00 | 91 | 1021.5 |
| 20260831065503 | 70 | 0 | 0.0 | 1.7 | 0.00 | 0.00 | 0.00 | 91 | 1021.5 |
| 20260831065003 | 70 | 0 | 0.0 | 1.7 | 0.00 | 0.00 | 0.00 | 91 | 1021.6 |
| 20260831064503 | 70 | 0 | 0.0 | 0.9 | 0.00 | 0.00 | 0.00 | 91 | 1021.6 |
| 20260831064003 | 70 | 0 | 0.0 | 0.9 | 0.00 | 0.00 | 0.00 | 91 | 1021.6 |
| 20260831063717 | 70 | 0 | 0.0 | 1.7 | 0.00 | 0.00 | 0.00 | 91 | 1021.6 |
| 20260831063003 | 71 | 0 | 0.0 | 1.7 | 0.00 | 0.00 | 0.00 | 91 | 1021.6 |
| 20260831062503 | 71 | 0 | 0.0 | 0.9 | 0.00 | 0.00 | 0.00 | 91 | 1021.6 |
| 20260831062003 | 71 | 0 | 0.0 | 0.9 | 0.00 | 0.00 | 0.00 | 91 | 1021.6 |
| 20260831061503 | 71 | 159 | 0.9 | 0.9 | 0.00 | 0.00 | 0.00 | 91 | 1021.7 |
| 20260831061003 | 71 | 160 | 0.9 | 1.7 | 0.00 | 0.00 | 0.00 | 91 | 1021.7 |
| 20260831060503 | 71 | 0 | 0.0 | 1.7 | 0.00 | 0.00 | 0.00 | 91 | 1021.7 |
| 20260831060004 | 71 | 0 | 0.0 | 0.9 | 0.00 | 0.00 | 0.00 | 91 | 1021.6 |
| 20260831055503 | 71 | 0 | 0.0 | 0.9 | 0.00 | 0.00 | 0.00 | 90 | 1021.7 |
| 20260831055003 | 71 | 0 | 0.0 | 0.9 | 0.00 | 0.00 | 0.00 | 90 | 1021.6 |
| 20260831054717 | 71 | 0 | 0.0 | 0.9 | 0.00 | 0.00 | 0.00 | 90 | 1021.6 |
| 20260831054003 | 71 | 0 | 0.0 | 0.9 | 0.00 | 0.00 | 0.00 | 90 | 1021.6 |
| 20260831053503 | 71 | 0 | 0.0 | 0.9 | 0.00 | 0.00 | 0.00 | 90 | 1021.7 |
| 20260831053216 | 71 | 0 | 0.0 | 0.9 | 0.00 | 0.00 | 0.00 | 90 | 1021.6 |
| 20260831052503 | 71 | 0 | 0.0 | 0.9 | 0.00 | 0.00 | 0.00 | 90 | 1021.5 |
| 20260831052003 | 71 | 0 | 0.0 | 0.9 | 0.00 | 0.00 | 0.00 | 90 | 1021.6 |
| 20260831051503 | 72 | 0 | 0.0 | 0.9 | 0.00 | 0.00 | 0.00 | 90 | 1021.6 |
| 20260831051003 | 72 | 0 | 0.0 | 0.9 | 0.00 | 0.00 | 0.00 | 90 | 1021.6 |
| 20260831050503 | 72 | 0 | 0.0 | 0.9 | 0.00 | 0.00 | 0.00 | 90 | 1021.6 |
| 20260831050005 | 72 | 0 | 0.0 | 0.9 | 0.00 | 0.00 | 0.00 | 90 | 1021.6 |
| 20260831045503 | 72 | 0 | 0.0 | 0.9 | 0.00 | 0.00 | 0.00 | 90 | 1021.6 |
| 20260831045003 | 72 | 0 | 0.0 | 0.9 | 0.00 | 0.00 | 0.00 | 91 | 1021.7 |
| 20260831044503 | 72 | 155 | 0.9 | 1.7 | 0.00 | 0.00 | 0.00 | 90 | 1021.7 |
| 20260831044003 | 72 | 146 | 0.9 | 1.7 | 0.00 | 0.00 | 0.00 | 91 | 1021.7 |
| 20260831043713 | 72 | 141 | 0.9 | 0.9 | 0.00 | 0.00 | 0.00 | 91 | 1021.7 |
| 20260831043003 | 72 | 0 | 0.0 | 0.9 | 0.00 | 0.00 | 0.00 | 90 | 1021.8 |
| 20260831042503 | 72 | 0 | 0.0 | 0.9 | 0.00 | 0.00 | 0.00 | 90 | 1021.9 |
| 20260831042003 | 72 | 0 | 0.0 | 0.9 | 0.00 | 0.00 | 0.00 | 90 | 1021.8 |
| 20260831041503 | 72 | 0 | 0.0 | 0.9 | 0.00 | 0.00 | 0.00 | 90 | 1021.9 |
| 20260831041003 | 72 | 0 | 0.0 | 0.9 | 0.00 | 0.00 | 0.00 | 90 | 1022.0 |
| 20260831040503 | 72 | 0 | 0.0 | 0.9 | 0.00 | 0.00 | 0.00 | 90 | 1022.0 |
| 20260831040020 | 72 | 0 | 0.0 | 0.9 | 0.00 | 0.00 | 0.00 | 90 | 1022.0 |
| 20260831035503 | 73 | 0 | 0.0 | 0.9 | 0.00 | 0.00 | 0.00 | 90 | 1022.0 |
| 20260831035003 | 73 | 0 | 0.0 | 0.9 | 0.00 | 0.00 | 0.00 | 89 | 1022.0 |
| 20260831034503 | 73 | 0 | 0.0 | 0.9 | 0.00 | 0.00 | 0.00 | 90 | 1022.0 |
| 20260831034003 | 73 | 0 | 0.0 | 0.9 | 0.00 | 0.00 | 0.00 | 90 | 1021.9 |
| 20260831033503 | 73 | 144 | 0.9 | 1.7 | 0.00 | 0.00 | 0.00 | 89 | 1022.0 |
| 20260831033003 | 73 | 148 | 0.9 | 1.7 | 0.00 | 0.00 | 0.00 | 89 | 1022.1 |
| 20260831032503 | 73 | 0 | 0.0 | 1.7 | 0.00 | 0.00 | 0.00 | 89 | 1022.1 |
| 20260831032003 | 73 | 0 | 0.0 | 0.9 | 0.00 | 0.00 | 0.00 | 89 | 1022.2 |
| 20260831031716 | 73 | 0 | 0.0 | 0.9 | 0.00 | 0.00 | 0.00 | 89 | 1022.2 |
| 20260831031003 | 73 | 0 | 0.0 | 0.9 | 0.00 | 0.00 | 0.00 | 89 | 1022.2 |
| 20260831030503 | 73 | 0 | 0.0 | 0.9 | 0.00 | 0.00 | 0.00 | 89 | 1022.2 |
| 20260831030003 | 74 | 0 | 0.0 | 0.9 | 0.00 | 0.00 | 0.00 | 88 | 1022.1 |
| 20260831025503 | 74 | 0 | 0.0 | 0.9 | 0.00 | 0.00 | 0.00 | 89 | 1022.1 |
| 20260831025003 | 74 | 0 | 0.0 | 0.9 | 0.00 | 0.00 | 0.00 | 89 | 1022.1 |
| 20260831024503 | 74 | 0 | 0.0 | 0.9 | 0.00 | 0.00 | 0.00 | 89 | 1022.1 |
| 20260831024003 | 74 | 0 | 0.0 | 0.9 | 0.00 | 0.00 | 0.00 | 88 | 1022.2 |
| 20260831023503 | 74 | 0 | 0.0 | 0.9 | 0.00 | 0.00 | 0.00 | 88 | 1022.2 |
| 20260831023003 | 74 | 0 | 0.0 | 0.9 | 0.00 | 0.00 | 0.00 | 88 | 1022.2 |
| 20260831022503 | 74 | 0 | 0.0 | 0.0 | 0.00 | 0.00 | 0.00 | 88 | 1022.2 |
| 20260831022003 | 74 | 0 | 0.0 | 0.9 | 0.00 | 0.00 | 0.00 | 88 | 1022.2 |
| 20260831021503 | 74 | 0 | 0.0 | 0.9 | 0.00 | 0.00 | 0.00 | 88 | 1022.2 |
| 20260831021003 | 74 | 0 | 0.0 | 0.9 | 0.00 | 0.00 | 0.00 | 88 | 1022.1 |
| 20260831020503 | 75 | 0 | 0.0 | 0.9 | 0.00 | 0.00 | 0.00 | 87 | 1022.1 |
| 20260831020003 | 75 | 0 | 0.0 | 0.9 | 0.00 | 0.00 | 0.00 | 88 | 1022.0 |
| 20260831015503 | 75 | 0 | 0.0 | 0.9 | 0.00 | 0.00 | 0.00 | 87 | 1022.0 |
| 20260831015003 | 75 | 0 | 0.0 | 0.9 | 0.00 | 0.00 | 0.00 | 87 | 1022.0 |
| 20260831014503 | 75 | 0 | 0.0 | 0.9 | 0.00 | 0.00 | 0.00 | 87 | 1021.9 |
| 20260831014003 | 75 | 0 | 0.0 | 0.9 | 0.00 | 0.00 | 0.00 | 87 | 1021.9 |
| 20260831013715 | 75 | 0 | 0.0 | 0.9 | 0.00 | 0.00 | 0.00 | 87 | 1021.8 |
| 20260831013003 | 76 | 0 | 0.0 | 0.9 | 0.00 | 0.00 | 0.00 | 87 | 1021.9 |
| 20260831012503 | 76 | 0 | 0.0 | 0.9 | 0.00 | 0.00 | 0.00 | 87 | 1021.9 |
| 20260831012003 | 76 | 0 | 0.0 | 0.9 | 0.00 | 0.00 | 0.00 | 87 | 1021.9 |
| 20260831011503 | 76 | 0 | 0.0 | 0.9 | 0.00 | 0.00 | 0.00 | 87 | 1021.9 |
| 20260831011003 | 76 | 0 | 0.0 | 0.9 | 0.00 | 0.00 | 0.00 | 87 | 1021.7 |
| 20260831010503 | 76 | 0 | 0.0 | 0.9 | 0.00 | 0.00 | 0.00 | 87 | 1021.7 |
| 20260831010216 | 76 | 0 | 0.0 | 0.9 | 0.00 | 0.00 | 0.00 | 87 | 1021.6 |
| 20260831005714 | 76 | 160 | 0.9 | 0.9 | 0.00 | 0.00 | 0.00 | 86 | 1021.6 |
| 20260831005003 | 76 | 165 | 0.9 | 0.9 | 0.00 | 0.00 | 0.00 | 86 | 1021.6 |
| 20260831004503 | 77 | 158 | 0.9 | 1.7 | 0.00 | 0.00 | 0.00 | 86 | 1021.6 |
| 20260831004003 | 77 | 153 | 0.9 | 1.7 | 0.00 | 0.00 | 0.00 | 86 | 1021.5 |
| 20260831003503 | 77 | 151 | 0.9 | 1.7 | 0.00 | 0.00 | 0.00 | 86 | 1021.4 |
| 20260831003003 | 77 | 0 | 0.0 | 0.9 | 0.00 | 0.00 | 0.00 | 85 | 1021.4 |
| 20260831002503 | 78 | 0 | 0.0 | 0.9 | 0.00 | 0.00 | 0.00 | 85 | 1021.3 |
| 20260831002003 | 78 | 137 | 0.9 | 0.9 | 0.00 | 0.00 | 0.00 | 85 | 1021.3 |
| 20260831001503 | 78 | 141 | 0.9 | 0.9 | 0.00 | 0.00 | 0.00 | 85 | 1021.3 |
| 20260831001003 | 78 | 144 | 0.9 | 0.9 | 0.00 | 0.00 | 0.00 | 84 | 1021.3 |
| 20260831000714 | 78 | 0 | 0.0 | 0.9 | 0.00 | 0.00 | 0.00 | 84 | 1021.2 |
| 20260831000003 | 79 | 150 | 0.9 | 1.7 | 0.00 | 0.00 | 0.00 | 83 | 1021.3 |
| 20260830235503 | 79 | 0 | 0.0 | 1.7 | 0.00 | 0.00 | 0.00 | 82 | 1021.3 |
| 20260830235003 | 80 | 0 | 0.0 | 0.9 | 0.00 | 0.00 | 0.00 | 82 | 1021.4 |
| 20260830234503 | 80 | 0 | 0.0 | 0.9 | 0.00 | 0.00 | 0.00 | 81 | 1021.3 |
| 20260830234214 | 80 | 0 | 0.0 | 0.9 | 0.00 | 0.00 | 0.00 | 81 | 1021.3 |
| 20260830233503 | 80 | 0 | 0.0 | 1.7 | 0.00 | 0.00 | 0.00 | 81 | 1021.2 |
| 20260830233214 | 80 | 0 | 0.0 | 1.7 | 0.00 | 0.00 | 0.00 | 80 | 1021.3 |
| 20260830232503 | 81 | 151 | 0.9 | 1.7 | 0.00 | 0.00 | 0.00 | 79 | 1021.4 |
| 20260830232215 | 81 | 151 | 0.9 | 1.7 | 0.00 | 0.00 | 0.00 | 79 | 1021.4 |
| 20260830231713 | 81 | 163 | 0.9 | 1.7 | 0.00 | 0.00 | 0.00 | 78 | 1021.3 |
| 20260830231216 | 81 | 165 | 0.9 | 1.7 | 0.00 | 0.00 | 0.00 | 78 | 1021.3 |
| 20260830230505 | 82 | 164 | 0.9 | 1.7 | 0.00 | 0.00 | 0.00 | 78 | 1021.3 |
| 20260830230218 | 82 | 161 | 0.9 | 1.7 | 0.00 | 0.00 | 0.00 | 78 | 1021.3 |
| 20260830225715 | 82 | 162 | 0.9 | 1.7 | 0.00 | 0.00 | 0.00 | 77 | 1021.3 |
| 20260830225003 | 82 | 165 | 0.9 | 1.7 | 0.00 | 0.00 | 0.00 | 76 | 1021.2 |
| 20260830224716 | 82 | 164 | 0.9 | 1.7 | 0.00 | 0.00 | 0.00 | 76 | 1021.2 |
| 20260830224003 | 83 | 170 | 0.9 | 1.7 | 0.00 | 0.00 | 0.00 | 75 | 1021.2 |
| 20260830223503 | 83 | 166 | 0.9 | 1.7 | 0.00 | 0.00 | 0.00 | 75 | 1021.2 |
| 20260830223003 | 83 | 0 | 0.0 | 1.7 | 0.00 | 0.00 | 0.00 | 74 | 1021.2 |
| 20260830222504 | 84 | 157 | 0.9 | 1.7 | 0.00 | 0.00 | 0.00 | 74 | 1021.2 |
| 20260830222003 | 84 | 155 | 0.9 | 1.7 | 0.00 | 0.00 | 0.00 | 73 | 1021.2 |
| 20260830221503 | 84 | 156 | 0.9 | 1.7 | 0.00 | 0.00 | 0.00 | 72 | 1021.1 |
| 20260830221217 | 84 | 153 | 0.9 | 1.7 | 0.00 | 0.00 | 0.00 | 73 | 1021.1 |
| 20260830220503 | 84 | 154 | 0.9 | 1.7 | 0.00 | 0.00 | 0.00 | 72 | 1021.2 |
| 20260830220003 | 85 | 120 | 0.9 | 2.6 | 0.00 | 0.00 | 0.00 | 72 | 1021.2 |
| 20260830215716 | 85 | 74 | 0.9 | 2.6 | 0.00 | 0.00 | 0.00 | 72 | 1021.2 |
| 20260830215004 | 85 | 92 | 0.9 | 2.6 | 0.00 | 0.00 | 0.00 | 71 | 1021.1 |
| 20260830214503 | 85 | 119 | 0.9 | 2.6 | 0.00 | 0.00 | 0.00 | 71 | 1021.1 |
| 20260830214003 | 85 | 128 | 0.9 | 2.6 | 0.00 | 0.00 | 0.00 | 71 | 1021.1 |
| 20260830213503 | 85 | 1 | 0.9 | 2.6 | 0.00 | 0.00 | 0.00 | 70 | 1021.1 |
| 20260830213003 | 85 | 85 | 0.9 | 1.7 | 0.00 | 0.00 | 0.00 | 69 | 1021.2 |
| 20260830212503 | 85 | 130 | 0.9 | 1.7 | 0.00 | 0.00 | 0.00 | 70 | 1021.3 |
| 20260830212003 | 85 | 115 | 0.9 | 1.7 | 0.00 | 0.00 | 0.00 | 70 | 1021.2 |
| 20260830211503 | 86 | 70 | 0.9 | 3.5 | 0.00 | 0.00 | 0.00 | 70 | 1021.2 |
| 20260830211213 | 86 | 90 | 0.9 | 3.5 | 0.00 | 0.00 | 0.00 | 69 | 1021.2 |